Weather History for Muscatine, IA

Change the Weather History Date:

Tuesday, November 6, 2012

  Actual Average Record
Temperature  
Mean Temperature 44 °F -  
Max Temperature 46 °F 50 °F 75 °F (2001)
Min Temperature 41 °F 32 °F 16 °F (1991)
Degree Days  
Heating Degree Days 22    
Moisture  
Dew Point 36 °F    
Average Humidity 76    
Maximum Humidity 87    
Minimum Humidity 61    
Precipitation  
Precipitation 0.27 in - - ()
Sea Level Pressure  
Sea Level Pressure 29.94 in    
Wind  
Wind Speed 6 mph (SW)    
Max Wind Speed 13 mph    
Max Gust Speed 16 mph    
Visibility 8 miles    
Events Rain    
Averages and records for this station are not official NWS values.
T = Trace of Precipitation, MM = Missing Value Source: NWS Daily Summary

Daily Weather History Graph

Daily Weather History Graph

Search for Another Location

Airport:

Trip Planner

Search our weather history database for the weather conditions in past years. The results will help you decide how hot, cold, wet, or windy it might be!

Date:

Astronomy

Nov. 06, 2012 Rise Set
Actual Time 6:42 AM CST 4:53 PM CST
Civil Twilight 6:13 AM CST 5:22 PM CST
Nautical Twilight 5:40 AM CST 5:55 PM CST
Astronomical Twilight 5:08 AM CST 6:27 PM CST
Moon 11:33 PM CST (11/6) 12:34 PM CST (11/6)
Length of Visible Light 11h 08m
Length of Day
10h 10m
Waning Gibbous, 53% of the Moon is Illuminated
Nov 6
Waning Gibbous
Nov 6
Last Quarter
Nov 13
New
Nov 20
First Quarter
Nov 28
Full

Hourly Weather History & Observations

Time (CST) Temp. Windchill Dew Point Humidity Pressure Visibility Wind Dir Wind Speed Gust Speed Precip Events Conditions
12:15 AM 42.8 °F 41.1 °F 30.2 °F 61% 30.11 in 10.0 mi SSE 3.5 mph - N/A   Overcast
12:35 AM 42.8 °F - 30.2 °F 61% 30.10 in 10.0 mi Calm Calm - N/A   Overcast
12:55 AM 42.8 °F - 30.2 °F 61% 30.10 in 10.0 mi Calm Calm - N/A   Overcast
1:15 AM 42.8 °F - 30.2 °F 61% 30.08 in 10.0 mi Calm Calm - N/A   Overcast
1:35 AM 42.8 °F 41.1 °F 30.2 °F 61% 30.07 in 10.0 mi SE 3.5 mph - N/A   Overcast
1:55 AM 42.8 °F 40.1 °F 30.2 °F 61% 30.06 in 10.0 mi SE 4.6 mph - N/A   Overcast
2:15 AM 42.8 °F 40.1 °F 30.2 °F 61% 30.06 in 10.0 mi SSE 4.6 mph - N/A   Overcast
2:35 AM 42.8 °F 41.1 °F 30.2 °F 61% 30.06 in 10.0 mi SSE 3.5 mph - N/A   Overcast
2:55 AM 41.0 °F 38.0 °F 30.2 °F 65% 30.06 in 10.0 mi SE 4.6 mph - N/A   Overcast
3:15 AM 41.0 °F 38.0 °F 30.2 °F 65% 30.05 in 10.0 mi SSE 4.6 mph - N/A   Overcast
3:35 AM 41.0 °F 39.0 °F 32.0 °F 70% 30.05 in 10.0 mi South 3.5 mph - N/A   Overcast
3:55 AM 41.0 °F 39.0 °F 32.0 °F 70% 30.04 in 10.0 mi SSE 3.5 mph - N/A   Overcast
4:15 AM 41.0 °F 37.1 °F 32.0 °F 70% 30.02 in 10.0 mi SSE 5.8 mph - N/A   Overcast
4:35 AM 41.0 °F 38.0 °F 32.0 °F 70% 30.01 in 10.0 mi SSE 4.6 mph - N/A   Overcast
4:55 AM 41.0 °F 38.0 °F 32.0 °F 70% 30.00 in 10.0 mi SE 4.6 mph - N/A   Overcast
5:15 AM 41.0 °F 37.1 °F 32.0 °F 70% 30.00 in 10.0 mi South 5.8 mph - N/A   Overcast
5:35 AM 41.0 °F 39.0 °F 33.8 °F 76% 29.99 in 10.0 mi South 3.5 mph - N/A   Overcast
5:55 AM 41.0 °F 37.1 °F 33.8 °F 76% 29.99 in 10.0 mi South 5.8 mph - N/A   Overcast
6:15 AM 41.0 °F 36.4 °F 33.8 °F 76% 29.99 in 10.0 mi South 6.9 mph - N/A   Overcast
6:35 AM 41.0 °F 38.0 °F 33.8 °F 76% 29.98 in 10.0 mi South 4.6 mph - N/A   Overcast
6:55 AM 41.0 °F 37.1 °F 33.8 °F 76% 29.98 in 10.0 mi South 5.8 mph - N/A   Overcast
7:15 AM 42.8 °F 38.6 °F 33.8 °F 70% 29.98 in 7.0 mi South 6.9 mph - N/A   Drizzle
7:35 AM 41.0 °F 36.4 °F 35.6 °F 81% 29.98 in 5.0 mi South 6.9 mph - N/A Rain Light Rain
7:55 AM 41.0 °F 35.8 °F 35.6 °F 81% 29.97 in 5.0 mi South 8.1 mph - 0.02 in Rain Rain
8:15 AM 41.0 °F 35.2 °F 35.6 °F 81% 29.97 in 4.0 mi South 9.2 mph - 0.04 in Rain Light Rain
8:35 AM 41.0 °F 35.2 °F 35.6 °F 81% 29.96 in 3.0 mi South 9.2 mph - 0.09 in Rain Light Rain
8:55 AM 41.0 °F 35.8 °F 35.6 °F 81% 29.96 in 3.0 mi SSW 8.1 mph - 0.13 in Rain Rain
9:15 AM 41.0 °F 35.2 °F 37.4 °F 87% 29.96 in 4.0 mi SSW 9.2 mph - 0.04 in Rain Light Rain
9:35 AM 42.8 °F 38.0 °F 37.4 °F 81% 29.95 in 2.0 mi South 8.1 mph - 0.07 in Rain Light Rain
9:55 AM 42.8 °F 38.0 °F 37.4 °F 81% 29.94 in 2.5 mi SSW 8.1 mph - 0.07 in   Drizzle
10:15 AM 42.8 °F 36.6 °F 37.4 °F 81% 29.94 in 3.0 mi SSW 11.5 mph - N/A   Overcast
10:35 AM 42.8 °F 38.0 °F 37.4 °F 81% 29.93 in 4.0 mi SSW 8.1 mph - N/A   Overcast
10:55 AM 42.8 °F 37.5 °F 37.4 °F 81% 29.93 in 3.0 mi SSW 9.2 mph - N/A   Drizzle
11:15 AM 42.8 °F 37.5 °F 37.4 °F 81% 29.91 in 1.5 mi SSW 9.2 mph - 0.01 in Rain Light Rain
11:35 AM 42.8 °F 38.6 °F 37.4 °F 81% 29.90 in 2.0 mi SSW 6.9 mph - 0.01 in   Light Drizzle
11:55 AM 42.8 °F 37.5 °F 39.2 °F 87% 29.89 in 2.0 mi SSW 9.2 mph - 0.02 in Rain Rain
12:15 PM 42.8 °F 38.0 °F 39.2 °F 87% 29.88 in 3.0 mi SW 8.1 mph - 0.01 in Rain Light Rain
12:35 PM 42.8 °F 38.6 °F 39.2 °F 87% 29.88 in 3.0 mi SSW 6.9 mph - 0.02 in   Drizzle
12:55 PM 42.8 °F 38.0 °F 39.2 °F 87% 29.87 in 1.8 mi SW 8.1 mph - 0.02 in   Drizzle
1:15 PM 44.6 °F 40.7 °F 39.2 °F 81% 29.86 in 1.5 mi SW 6.9 mph - 0.01 in   Light Drizzle
1:35 PM 44.6 °F 41.4 °F 39.2 °F 81% 29.86 in 2.0 mi SW 5.8 mph - 0.01 in   Haze
1:55 PM 44.6 °F 40.2 °F 39.2 °F 81% 29.85 in 5.0 mi SW 8.1 mph - 0.01 in   Overcast
2:15 PM 44.6 °F 39.7 °F 39.2 °F 81% 29.85 in 7.0 mi West 9.2 mph - N/A   Overcast
2:35 PM 44.6 °F 38.4 °F 39.2 °F 81% 29.85 in 7.0 mi WSW 12.7 mph - N/A   Overcast
2:55 PM 46.4 °F 42.9 °F 42.8 °F 87% 29.85 in 7.0 mi West 6.9 mph - N/A   Overcast
3:15 PM 46.4 °F 41.9 °F 41.0 °F 81% 29.86 in 10.0 mi WNW 9.2 mph - N/A   Mostly Cloudy
3:35 PM 46.4 °F 42.9 °F 41.0 °F 81% 29.86 in 10.0 mi WNW 6.9 mph - N/A   Overcast
3:55 PM 46.4 °F 42.9 °F 41.0 °F 81% 29.87 in 10.0 mi WNW 6.9 mph - N/A   Overcast
4:15 PM 46.4 °F 43.5 °F 41.0 °F 81% 29.87 in 10.0 mi WNW 5.8 mph - N/A   Unknown
4:35 PM 44.6 °F 41.4 °F 39.2 °F 81% 29.88 in 7.0 mi WNW 5.8 mph - N/A   Unknown
4:55 PM 44.6 °F 41.4 °F 39.2 °F 81% 29.88 in 10.0 mi West 5.8 mph - N/A   Unknown
5:15 PM 44.6 °F 42.2 °F 39.2 °F 81% 29.89 in 10.0 mi West 4.6 mph - N/A   Unknown
5:35 PM 44.6 °F 42.2 °F 39.2 °F 81% 29.89 in 10.0 mi West 4.6 mph - N/A   Unknown
5:55 PM 44.6 °F 40.2 °F 39.2 °F 81% 29.90 in 10.0 mi NW 8.1 mph - N/A   Overcast
6:15 PM 44.6 °F 41.4 °F 39.2 °F 81% 29.90 in 10.0 mi WNW 5.8 mph - N/A   Unknown
6:35 PM 44.6 °F 40.7 °F 39.2 °F 81% 29.90 in 10.0 mi WNW 6.9 mph - N/A   Unknown
6:55 PM 44.6 °F 39.2 °F 39.2 °F 81% 29.91 in 10.0 mi NW 10.4 mph - N/A   Overcast
7:15 PM 44.6 °F 39.7 °F 39.2 °F 81% 29.91 in 10.0 mi NW 9.2 mph - N/A   Overcast
7:35 PM 44.6 °F 40.2 °F 37.4 °F 76% 29.91 in 10.0 mi NW 8.1 mph - N/A   Overcast
7:55 PM 44.6 °F 38.4 °F 37.4 °F 76% 29.91 in 10.0 mi WNW 12.7 mph 16.1 mph N/A   Overcast
8:15 PM 44.6 °F 39.7 °F 37.4 °F 76% 29.91 in 10.0 mi NW 9.2 mph - N/A   Light Drizzle
8:35 PM 44.6 °F 39.7 °F 37.4 °F 76% 29.91 in 10.0 mi WNW 9.2 mph - N/A   Overcast
8:55 PM 44.6 °F 39.2 °F 37.4 °F 76% 29.92 in 10.0 mi WNW 10.4 mph - N/A   Light Drizzle
9:15 PM 44.6 °F 39.7 °F 37.4 °F 76% 29.91 in 10.0 mi WNW 9.2 mph - N/A   Overcast
9:35 PM 44.6 °F 40.2 °F 37.4 °F 76% 29.91 in 10.0 mi WNW 8.1 mph - N/A Rain Light Rain
9:55 PM 44.6 °F 39.7 °F 37.4 °F 76% 29.91 in 10.0 mi WNW 9.2 mph - N/A Rain Light Rain
10:15 PM 44.6 °F 40.7 °F 37.4 °F 76% 29.91 in 10.0 mi WNW 6.9 mph - N/A   Light Drizzle
10:35 PM 44.6 °F 40.7 °F 37.4 °F 76% 29.90 in 10.0 mi West 6.9 mph - N/A   Unknown
10:55 PM 44.6 °F 40.2 °F 37.4 °F 76% 29.90 in 10.0 mi WNW 8.1 mph - N/A   Unknown
11:15 PM 44.6 °F 38.8 °F 37.4 °F 76% 29.90 in 10.0 mi WNW 11.5 mph - N/A Rain Light Rain
11:35 PM 44.6 °F 39.7 °F 37.4 °F 76% 29.90 in 10.0 mi WNW 9.2 mph - N/A Rain Light Rain
11:55 PM 44.6 °F 40.2 °F 37.4 °F 76% 29.91 in 10.0 mi NW 8.1 mph - N/A   Overcast